Showing default

CENTISPACE-1 S7, 62576

Orbit data source: Space-Track

CENTISPACE-1 S7, 62576 is a payload satellite owned by Centispace (CN) in LEO that was launched on Mon, 13 Jan 2025 UTC via a JIELONG-3 launch vehicle from the Yellow Sea Launch Area, China (YSLA). Payload-class satellites include a variety of spacecraft equipped with specific instruments for various scientific and technological missions. These include communications satellites like Starlink; space stations such as the ISS; scientific satellites like the Hubble; Earth observation satellites from companies like Planet Labs, Umbra, and HawkEye 360; GPS; miniature CubeSats for education and research; and military/defense satellites.

Loading next visibility...
Identifier
62576, 2025-007B
Orbit
LEO
Country
Flag of CNCN / PRC
Related business
Manufacturer
DFH Shenzhen
Mission
Operational Commercial Nav/Com
Bus & Motor
WK01, Unknown motor
Mass
140 kg wet, 140 kg dry
Launch date (UTC)
2025-01-13 (1 year ago)
Launch vehicle
JIELONG-3
Launch site
Yellow Sea Launch Area, China (YSLA)
Object type
Payload
Rocket body
Debris
Shape & HBR
Box + 2 Pan, 0.9 m
Radar Cross Section
0.833 m², Medium (>0.1 m² and < 1m²)

Expand to show TLE details & history
Last TLE update: 19 hours ago

TLE from 19 hours ago
0 CENTISPACE-1 S7
1 62576U 25007B   26034.05202304 -.00000098  00000-0  34273-4 0  9992
2 62576  54.9755  43.3288 0008474 263.0116  96.9884 13.98098231 56158
Epoch: 2026-02-03T01:14Z
TLE epoch observation values (Epoch: 2026-02-03T01:14:54.790Z)
Latitude
-0.00007°
Longitude
-108.63804°
Altitude
902.173 km
Speed
7.402 km/s
True Right ascension
02h 53m 18s
True Declination
0° 00' 00"
Sunlit
Object was in daylight at epoch
Visualization orbit readout
Latitude
Unknown
Longitude
Unknown
Altitude
Unknown
Speed
Unknown
Apparent Right ascension
Unknown
Apparent Declination
Unknown
Sunlit
N/A
Visualization observer readout
Local Sidereal Time
21:57:38
Azimuth
Unknown
Elevation
Unknown
Doppler factor
Unknown
Orbital elements
Apogee altitude
906.525 km
Perigee altitude
894.189 km
Semi-major axis
7,278.494 km
Eccentricity
0.00085
Inclination
54.9755°
RAAN
43.3288°
Arg. of periapsis
263.0116°
True anomaly
97.08477°
Mean anomaly
96.9884°
Eccentric anomaly
97.03659°
Mean motion
3.49527 °/min
Orbital period
103 mins
BSTAR
0.000034273
Loading maneuver chart data...
Computing Atmospheric mass density...
Loading historical data...
Loading historical data...
Loading historical data...
Loading historical data...
Loading historical data...
Loading historical data...
Loading historical data...

Documentation

Showing up to 5 results
|